K5KVN-2 Weather Reports


Display with metric or nautical units.
time (UTC)temp
F
wind
direction
speed
MPH
gust
MPH
rain 1hr
in
rain 24hr
in
rain mn
in
humidity
%
barometer
mb
20260902133509 81 146 1.0 3.0 0.00 0.00 0.00 70 1018.9
20260902132512 80 105 0.0 2.0 0.00 0.00 0.00 74 1019.0
20260902131509 78 125 0.0 0.0 0.00 0.00 0.00 76 1019.0
20260902130510 76 149 0.0 0.0 0.00 0.00 0.00 80 1019.1
20260902125509 76 149 0.0 1.0 0.00 0.00 0.00 80 1018.9
20260902124510 75 162 0.0 1.0 0.00 0.00 0.00 81 1018.9
20260902123510 75 119 0.0 0.0 0.00 0.00 0.00 81 1018.8
20260902122504 75 119 0.0 0.0 0.00 0.00 0.00 80 1018.7
20260902121504 75 119 0.0 0.0 0.00 0.00 0.00 79 1018.4
20260902120503 75 119 0.0 0.0 0.00 0.00 0.00 78 1018.3
20260902115503 76 119 0.0 0.0 0.00 0.00 0.00 77 1018.2
20260902114505 76 119 0.0 0.0 0.00 0.00 0.00 76 1018.2
20260902113503 77 119 0.0 0.0 0.00 0.00 0.00 75 1018.0
20260902111505 78 119 0.0 0.0 0.00 0.00 0.00 72 1017.9
20260902110503 78 119 0.0 1.0 0.00 0.00 0.00 72 1017.8
20260902105503 79 119 1.0 2.0 0.00 0.00 0.00 71 1017.8
20260902103503 79 117 0.0 1.0 0.00 0.00 0.00 70 1017.7
20260902102503 80 117 0.0 2.0 0.00 0.00 0.00 69 1017.6
20260902101503 80 120 0.0 3.0 0.00 0.00 0.00 69 1017.5
20260902100502 80 122 0.0 2.0 0.00 0.00 0.00 69 1017.6
20260902095502 80 122 0.0 2.0 0.00 0.00 0.00 69 1017.5
20260902094501 80 113 0.0 1.0 0.00 0.00 0.00 69 1017.6
20260902093503 80 119 0.0 2.0 0.00 0.00 0.00 68 1017.6
20260902092501 81 134 0.0 1.0 0.00 0.00 0.00 67 1017.6
20260902091504 81 150 1.0 3.0 0.00 0.00 0.00 66 1017.5
20260902090501 81 159 1.0 3.0 0.00 0.00 0.00 66 1017.4
20260902085501 81 150 2.0 5.0 0.00 0.00 0.00 67 1017.5
20260902084503 81 137 2.0 3.0 0.00 0.00 0.00 66 1017.5
20260902083500 81 151 2.0 4.0 0.00 0.00 0.00 67 1017.5
20260902082502 81 128 2.0 4.0 0.00 0.00 0.00 66 1017.4
20260902081502 81 146 2.0 5.0 0.00 0.00 0.00 66 1017.6
20260902080500 81 135 2.0 3.0 0.00 0.00 0.00 66 1017.6
20260902075457 82 128 3.0 4.0 0.00 0.00 0.00 65 1017.5
20260902074456 82 144 3.0 4.0 0.00 0.00 0.00 65 1017.4
20260902073456 82 140 3.0 5.0 0.00 0.00 0.00 65 1017.5
20260902072456 82 139 3.0 4.0 0.00 0.00 0.00 64 1017.5
20260902071454 82 143 3.0 5.0 0.00 0.00 0.00 64 1017.6
20260902070454 82 152 3.0 4.0 0.00 0.00 0.00 64 1017.6
20260902065454 82 135 3.0 5.0 0.00 0.00 0.00 64 1017.7
20260902064455 82 151 2.0 5.0 0.00 0.00 0.00 63 1017.6
20260902063454 83 145 3.0 5.0 0.00 0.00 0.00 63 1017.6
20260902062455 83 148 3.0 6.0 0.00 0.00 0.00 62 1017.5
20260902060448 82 159 3.0 6.0 0.00 0.00 0.00 63 1017.6
20260902055936 82 171 1.0 5.0 0.00 0.00 0.00 63 1017.6
20260902054450 82 163 2.0 4.0 0.00 0.00 0.00 62 1017.6
20260902053448 83 171 4.0 6.0 0.00 0.00 0.00 62 1017.5
20260902052446 83 170 4.0 6.0 0.00 0.00 0.00 62 1017.5
20260902051446 83 177 2.0 4.0 0.00 0.00 0.00 62 1017.5
20260902050448 83 184 1.0 3.0 0.00 0.00 0.00 60 1017.4
20260902045448 84 133 2.0 3.0 0.00 0.00 0.00 59 1017.3
20260902044444 84 118 2.0 4.0 0.00 0.00 0.00 58 1017.3
20260902043442 85 128 2.0 3.0 0.00 0.00 0.00 57 1017.3
20260902042440 85 138 2.0 3.0 0.00 0.00 0.00 57 1017.4
20260902041438 85 136 3.0 6.0 0.00 0.00 0.00 57 1017.3
20260902040438 85 132 3.0 4.0 0.00 0.00 0.00 56 1017.2
20260902035438 86 140 3.0 4.0 0.00 0.00 0.00 55 1017.1
20260902034916 86 115 3.0 4.0 0.00 0.00 0.00 55 1017.2
20260902033439 86 138 3.0 5.0 0.00 0.00 0.00 54 1017.2
20260902032439 87 139 3.0 6.0 0.00 0.00 0.00 53 1017.1
20260902031437 87 134 4.0 6.0 0.00 0.00 0.00 53 1017.0
20260902030436 87 140 3.0 6.0 0.00 0.00 0.00 52 1016.8
20260902025437 87 144 3.0 5.0 0.00 0.00 0.00 51 1016.7
20260902024915 87 142 3.0 5.0 0.00 0.00 0.00 50 1016.7
20260902023436 88 135 3.0 6.0 0.00 0.00 0.00 49 1016.4
20260902022436 88 128 4.0 6.0 0.00 0.00 0.00 49 1016.3
20260902021436 89 141 4.0 7.0 0.00 0.00 0.00 48 1016.3
20260902020438 89 136 4.0 7.0 0.00 0.00 0.00 47 1016.2
20260902015434 89 144 4.0 6.0 0.00 0.00 0.00 47 1016.1
20260902014435 89 126 4.0 6.0 0.00 0.00 0.00 46 1015.9
20260902013434 90 116 3.0 4.0 0.00 0.00 0.00 45 1015.6
20260902012909 90 142 3.0 4.0 0.00 0.00 0.00 44 1015.4
20260902011436 91 140 3.0 4.0 0.00 0.00 0.00 44 1015.3
20260902010435 91 142 3.0 5.0 0.00 0.00 0.00 43 1015.5
20260902005435 91 150 2.0 5.0 0.00 0.00 0.00 43 1015.5
20260902004436 92 148 3.0 6.0 0.00 0.00 0.00 42 1015.4
20260902002435 94 166 7.0 11.0 0.00 0.00 0.00 39 1015.5
20260902001435 94 145 6.0 11.0 0.00 0.00 0.00 39 1015.5
20260902000436 95 168 6.0 11.0 0.00 0.00 0.00 38 1015.5
20260901235912 95 165 6.0 11.0 0.00 0.00 0.00 36 1015.5
20260901234435 96 179 7.0 12.0 0.00 0.00 0.00 35 1015.5
20260901233435 96 165 8.0 13.0 0.00 0.00 0.00 35 1015.5
20260901232435 97 159 6.0 10.0 0.00 0.00 0.00 34 1015.7
20260901231435 97 121 4.0 8.0 0.00 0.00 0.00 34 1015.7
20260901230435 97 101 4.0 8.0 0.00 0.00 0.00 33 1015.9
20260901225435 97 149 5.0 9.0 0.00 0.00 0.00 32 1015.9
20260901224435 98 117 6.0 10.0 0.00 0.00 0.00 32 1015.9
20260901223435 99 155 7.0 11.0 0.00 0.00 0.00 31 1015.7
20260901222435 99 155 6.0 11.0 0.00 0.00 0.00 30 1015.9
20260901221433 98 123 3.0 8.0 0.00 0.00 0.00 31 1015.6
20260901220432 99 144 4.0 9.0 0.00 0.00 0.00 30 1015.9
20260901215910 99 164 7.0 13.0 0.00 0.00 0.00 30 1015.7
20260901214433 98 134 2.0 5.0 0.00 0.00 0.00 32 1015.9
20260901212912 98 184 4.0 9.0 0.00 0.00 0.00 32 1016.2
20260901211430 98 201 7.0 13.0 0.00 0.00 0.00 32 1016.3
20260901210431 98 161 4.0 10.0 0.00 0.00 0.00 33 1016.4
20260901205430 99 142 6.0 11.0 0.00 0.00 0.00 32 1016.6
20260901203430 100 164 6.0 11.0 0.00 0.00 0.00 33 1016.6
20260901202429 99 207 4.0 15.0 0.00 0.00 0.00 33 1016.7
20260901201916 98 178 8.0 14.0 0.00 0.00 0.00 33 1017.0
20260901200431 98 153 5.0 12.0 0.00 0.00 0.00 36 1016.9
20260901195430 98 192 7.0 16.0 0.00 0.00 0.00 35 1017.1
20260901194429 98 103 3.0 11.0 0.00 0.00 0.00 35 1017.2
20260901193429 95 165 1.0 4.0 0.00 0.00 0.00 40 1017.2
20260901192427 94 129 2.0 5.0 0.00 0.00 0.00 40 1017.3
20260901191424 94 128 2.0 6.0 0.00 0.00 0.00 41 1017.5
20260901190424 94 115 2.0 7.0 0.00 0.00 0.00 41 1017.7
20260901185425 96 100 2.0 7.0 0.00 0.00 0.00 40 1017.7
20260901184423 96 165 5.0 11.0 0.00 0.00 0.00 40 1017.7
20260901183424 96 355 4.0 7.0 0.00 0.00 0.00 40 1017.9
20260901182419 95 194 3.0 8.0 0.00 0.00 0.00 43 1018.2
20260901181420 95 231 2.0 8.0 0.00 0.00 0.00 42 1018.3
20260901180902 95 186 3.0 9.0 0.00 0.00 0.00 41 1018.6
20260901175417 96 199 6.0 10.0 0.00 0.00 0.00 41 1018.8
20260901174418 94 202 4.0 10.0 0.00 0.00 0.00 44 1018.9
20260901173417 94 186 4.0 10.0 0.00 0.00 0.00 43 1019.1
20260901172906 93 126 6.0 12.0 0.00 0.00 0.00 45 1019.1
20260901171418 95 199 6.0 12.0 0.00 0.00 0.00 43 1019.2
20260901170422 94 199 4.0 9.0 0.00 0.00 0.00 45 1019.5
20260901165903 94 217 4.0 10.0 0.00 0.00 0.00 45 1019.5
20260901164417 93 232 5.0 9.0 0.00 0.00 0.00 46 1019.7
20260901163414 93 169 8.0 14.0 0.00 0.00 0.00 46 1019.7
20260901162413 93 190 7.0 11.0 0.00 0.00 0.00 48 1019.8
20260901161415 93 171 4.0 12.0 0.00 0.00 0.00 48 1019.8
20260901160413 92 188 6.0 10.0 0.00 0.00 0.00 51 1019.9
20260901155413 92 172 7.0 15.0 0.00 0.00 0.00 49 1020.0
20260901154413 91 173 5.0 10.0 0.00 0.00 0.00 50 1020.0
20260901153414 91 195 3.0 10.0 0.00 0.00 0.00 51 1020.0
20260901152413 90 225 5.0 10.0 0.00 0.00 0.00 53 1019.8
20260901151849 90 168 6.0 14.0 0.00 0.00 0.00 54 1019.9
20260901150415 89 194 7.0 13.0 0.00 0.00 0.00 54 1020.0
20260901145414 88 181 8.0 14.0 0.00 0.00 0.00 56 1019.8
20260901144413 88 216 7.0 13.0 0.00 0.00 0.00 57 1020.0
20260901143413 87 178 6.0 11.0 0.00 0.00 0.00 59 1019.9
20260901142413 86 207 5.0 11.0 0.00 0.00 0.00 59 1020.0
20260901141414 85 180 4.0 8.0 0.00 0.00 0.00 62 1019.9
20260901140415 84 173 4.0 8.0 0.00 0.00 0.00 63 1020.0
20260901135414 83 198 3.0 7.0 0.00 0.00 0.00 65 1019.9
20260901134416 82 205 2.0 5.0 0.00 0.00 0.00 67 1020.1